Location: Zagreb
(45.8000°N, 16.0000°E)
Time: 02:55:06
(UTC+01:00)

S-56A Canister/Altair - Pass Details

Date: 05 October 2020
Orbit: 633 x 2499 km, 38.9° (Epoch: 25 October)

Event Time Altitude Azimuth Distance (km) Brightness Sun altitude
Rises 19:42:32 0° 283° (WNW) 6,150 14.1 -13.8°
Reaches altitude 10° 19:47:29 10° 274° (W) 5,029 13.1 -14.7°
Maximum altitude 19:58:22 28° 224° (SW) 3,296 11.1 -16.5°
Drops below altitude 10° 20:07:03 10° 170° (S) 3,938 10.9 -18.0°
Sets 20:10:24 0° 159° (SSE) 4,647 11.2 -18.6°
